[[{"header":{"parameterUnit":"m.s-1","parameterCategory":1,"la1":30.2991,"la2":30.254,"lo1":-89.0895,"lo2":-89.0444,"dx":0.0017,"dy":0.0017,"nx":28,"ny":28,"refTime":"2022-11-16T03:00:00:Z","depth":0,"parameterNumber":2,"parameterNumberName":"U-component_of_WINDS"},"data":[0,0,0,0,0,0,0,0,0,0,0,0,0,0,0,0,0,0,0,0,0,0,0,0,0,0,0,0,0,0,0,0,0,0,0,0,0,0,0,0,0,0,0,0,0,0,0,0,0,0,0,0,0,0,0,0,0,0,0.0451,0.0451,0,0.0375,0.0374,0.0373,0.0369,0.037,0.0371,0.0372,0.029,0.0288,0.0285,0,0,0,0,0,0,0,0,0,0,0,0,0,0.0592,0.0589,0.0452,0.0451,0.045,0.0375,0.0374,0.0373,0.0369,0.037,0.0371,0.0372,0.0291,0.0288,0.0284,0,0,0,0,0,0,0,0,0,0,0,0,0,0.0525,0.0589,0.0452,0.0439,0.0437,0.0375,0.0374,0.0373,0.0369,0.037,0.0371,0.0373,0.0293,0.0288,0.0284,0.023,0,0,0.027,0.0268,0,0,0,0,0,0,0,0,0.0529,0.052,0.0441,0.0439,0.0437,0.0383,0.0394,0.0325,0.0368,0.0394,0.0372,0.0373,0.032,0.0313,0.0296,0.0226,0.0222,0.027,0.0267,0.0265,0.0264,0,0,0,0,0,0,0,0.0533,0.0523,0.0421,0.044,0.0438,0.0436,0.0428,0.0381,0.0351,0.0392,0.0392,0.0383,0.0319,0.03,0.0294,0.0221,0.027,0.0266,0.0263,0.0261,0.0104,0.0102,0,0,0,0,0,0,0.0541,0.0527,0.0424,0.0419,0.0487,0.0432,0.0423,0.0399,0.0351,0.0345,0.0382,0.0383,0.0307,0.0299,0.0291,0.0225,0.0265,0.0261,0.0258,0.0105,0.0103,0.0102,0,0,0,0,0,0,0.0544,0.0532,0.0427,0.0473,0.0459,0.0429,0.0401,0.0397,0.0378,0.0343,0.0338,0.0368,0.0308,0.0297,0.0245,0.0222,0.0259,0.0255,0.0107,0.0104,0.0102,0.0091,0,0,0,0,0,0,0.0548,0.0533,0.0512,0.0472,0.0457,0.0382,0.04,0.0394,0.0371,0.0371,0.0329,0.0323,0.0308,0.0252,0.0241,0.0216,0.0251,0.0109,0.0106,0.0103,0.0093,0.0089,0.0085,0,0,0,0,0,0.0553,0.0511,0.0511,0.0498,0.043,0.0381,0.0372,0.0356,0.0369,0.0347,0.0326,0.0325,0.0227,0.0247,0.0234,0.0208,0.011,0.0107,0.0103,0.0095,0.009,0.0085,0,0,0,0,0,0,0.0547,0.0505,0.0505,0.0449,0.0419,0.0381,0.0353,0.0351,0.0315,0.0318,0.0299,0.0289,0.0238,0.0218,0.0241,0.0153,0.017,0.0164,0.0168,0.0162,0.0158,0.0163,0.0248,0,0,0,0,0,0.054,0.0504,0.0469,0.0423,0.0408,0.0383,0.0361,0.0352,0.032,0.0306,0.028,0.0248,0.021,0.0185,0.0148,0.0091,0.0082,0.0067,0.0063,0.0059,0.0054,0.0023,0.0016,0.009,0.009,0.0091,0,0,0.0523,0.0496,0.0474,0.0421,0.0397,0.036,0.0372,0.0332,0.0304,0.03,0.0249,0.023,0.0192,0.0138,0.0112,0.0119,0.0032,0.0055,0.0053,0.0049,0.0018,0.0011,0.0005,0.0088,0.0089,0.0089,0,0,0.0474,0.045,0.0409,0.0385,0.0349,0.0333,0.0323,0.0285,0.0272,0.0222,0.0218,0.0185,0.0119,0.0093,0.0071,0.0015,0.0013,0.0004,-0.002,-0.005,-0.0056,-0.0061,-0.0082,-0.0089,-0.0001,-0.0001,-0.0001,0,0.0457,0.0402,0.0389,0.0349,0.0326,0.0322,0.0281,0.0258,0.021,0.0194,0.0203,0.0123,0.0097,0.0037,0.0023,0.0006,-0.0006,0.0007,-0.0054,-0.0059,-0.0064,-0.0084,-0.0092,-0.0002,-0.0002,-0.0002,-0.0002,0,0.0384,0.0346,0.0317,0.0273,0.0247,0.0207,0.0187,0.0162,0.0156,0.0139,0.0088,0.0058,0.0015,0.0,-0.0007,-0.0061,-0.0055,-0.005,-0.0034,-0.0072,-0.0091,-0.0099,-0.0004,-0.0003,-0.0003,-0.0003,0,0,0.0326,0.0277,0.0267,0.0247,0.0208,0.0178,0.0138,0.0097,0.0076,0.0044,0.001,-0.0044,-0.0038,-0.0063,-0.0073,-0.0099,-0.0142,-0.009,-0.0091,-0.0099,-0.0203,-0.0208,-0.0217,-0.0142,-0.0144,-0.0145,-0.02,0,0.0272,0.0201,0.0189,0.0127,0.0091,0.0089,0.0054,0.0025,0.0009,-0.0024,-0.0042,-0.008,-0.0069,-0.0084,-0.011,-0.0131,-0.0163,-0.0127,-0.0175,-0.0177,-0.0167,-0.0227,-0.0232,-0.0283,-0.0208,-0.0209,-0.021,0,0.0199,0.0167,0.0102,0.0068,0.0053,0.0022,-0.0016,-0.0047,-0.0079,-0.0088,-0.0115,-0.0121,-0.0163,-0.0143,-0.0201,-0.0177,-0.0197,-0.021,-0.0212,-0.0218,-0.0197,-0.0235,-0.03,-0.0308,-0.0222,-0.0221,-0.022,0,0.0163,0.0104,0.0057,0.0041,0.0,-0.0022,-0.0039,-0.007,-0.0093,-0.0125,-0.014,-0.0178,-0.0199,-0.0227,-0.0243,-0.0228,-0.03,-0.0282,-0.031,-0.031,-0.0327,-0.0326,-0.0397,-0.0338,-0.0338,-0.0338,-0.0338,0,0.0103,0.0063,0.0041,0.0012,-0.0033,-0.0046,-0.009,-0.0108,-0.0134,-0.0167,-0.0171,-0.0202,-0.0221,-0.0254,-0.0266,-0.0313,-0.0322,-0.0331,-0.0335,-0.0332,-0.0331,-0.0346,-0.0344,-0.034,-0.0339,-0.0339,-0.0339,0,0.0055,0.0038,-0.0013,-0.0046,-0.0055,-0.0087,-0.0115,-0.0143,-0.0158,-0.0199,-0.021,-0.0234,-0.0273,-0.0291,-0.034,-0.0348,-0.0401,-0.0401,-0.039,-0.0391,-0.0418,-0.0416,-0.0503,-0.0515,-0.0447,-0.0448,-0.0448,0,0.0017,-0.0014,-0.0049,-0.0071,-0.0089,-0.0124,-0.0147,-0.016,-0.0184,-0.0221,-0.0245,-0.0284,-0.0316,-0.0378,-0.04,-0.0437,-0.0439,-0.0467,-0.0445,-0.0441,-0.044,-0.0439,-0.0442,-0.0471,-0.0472,-0.0473,-0.0473,0,-0.0049,-0.0055,-0.0087,-0.0122,-0.0149,-0.0178,-0.0206,-0.0223,-0.0242,-0.0268,-0.0307,-0.0332,-0.038,-0.0419,-0.0457,-0.0476,-0.0478,-0.0479,-0.0488,-0.0486,-0.0479,-0.0483,-0.0402,-0.0478,-0.0477,-0.0477,-0.0477,-0.0477,-0.0094,-0.0121,-0.0149,-0.0185,-0.0207,-0.0233,-0.0261,-0.0278,-0.0311,-0.0351,-0.0357,-0.0399,-0.0429,-0.048,-0.0499,-0.0532,-0.0526,-0.0538,-0.0542,-0.0545,-0.0547,-0.0472,-0.0539,-0.0539,-0.0539,-0.0539,-0.0539,0,-0.016,-0.0178,-0.021,-0.0249,-0.0277,-0.0274,-0.0304,-0.0328,-0.0365,-0.0392,-0.0422,-0.0467,-0.0504,-0.0528,-0.0565,-0.0587,-0.0589,-0.0596,-0.0596,-0.06,-0.055,-0.0539,-0.0594,-0.0594,-0.0594,-0.0594,-0.0594,-0.0594,-0.0198,-0.0243,-0.0252,-0.0309,-0.0327,-0.0367,-0.0384,-0.0408,-0.0429,-0.0479,-0.0509,-0.0524,-0.055,-0.0588,-0.0622,-0.0628,-0.0642,-0.065,-0.0656,-0.0609,-0.0604,-0.0598,-0.0588,-0.0653,-0.0653,-0.0703,-0.0704,-0.0704]},{"header":{"parameterUnit":"m.s-1","parameterCategory":1,"la1":30.2991,"la2":30.254,"lo1":-89.0895,"lo2":-89.0444,"dx":0.0017,"dy":0.0017,"nx":28,"ny":28,"refTime":"2022-11-16T03:00:00:Z","depth":0,"parameterNumber":3,"parameterNumberName":"V-component_of_WINDS"},"data":[0,0,0,0,0,0,0,0,0,0,0,0,0,0,0,0,0,0,0,0,0,0,0,0,0,0,0,0,0,0,0,0,0,0,0,0,0,0,0,0,0,0,0,0,0,0,0,0,0,0,0,0,0,0,0,0,0,0,-6.7617,-6.7619,0,-6.7734,-6.7736,-6.7737,-6.7656,-6.7653,-6.7649,-6.7646,-6.7761,-6.7767,-6.7773,0,0,0,0,0,0,0,0,0,0,0,0,0,-6.7319,-6.7325,-6.7617,-6.7619,-6.762,-6.7734,-6.7736,-6.7737,-6.7657,-6.7653,-6.7648,-6.7644,-6.7759,-6.7766,-6.7774,0,0,0,0,0,0,0,0,0,0,0,0,0,-6.7443,-6.7327,-6.7617,-6.7594,-6.7593,-6.7734,-6.7736,-6.7738,-6.7658,-6.7653,-6.7647,-6.7642,-6.7756,-6.7765,-6.7775,-6.7943,0,0,-6.7804,-6.7809,0,0,0,0,0,0,0,0,-6.7436,-6.7454,-6.7596,-6.7596,-6.7595,-6.7675,-6.7673,-6.7807,-6.7659,-6.7633,-6.7646,-6.7639,-6.7736,-6.7747,-6.7781,-6.7949,-6.7954,-6.7805,-6.7811,-6.7815,-6.7818,0,0,0,0,0,0,0,-6.7428,-6.7449,-6.7663,-6.7598,-6.7598,-6.7576,-6.7588,-6.7698,-6.7714,-6.7635,-6.7629,-6.7645,-6.7735,-6.7772,-6.7783,-6.7955,-6.7805,-6.7814,-6.782,-6.7823,-6.8266,-6.8271,0,0,0,0,0,0,-6.7422,-6.7442,-6.766,-6.7667,-6.7501,-6.7586,-6.7599,-6.7655,-6.7712,-6.7716,-6.7649,-6.7641,-6.7758,-6.7772,-6.7787,-6.7987,-6.7815,-6.7824,-6.783,-6.826,-6.8267,-6.8273,0,0,0,0,0,0,-6.7416,-6.7442,-6.7655,-6.7553,-6.7579,-6.7597,-6.766,-6.766,-6.7697,-6.7723,-6.7725,-6.7684,-6.7754,-6.7773,-6.7905,-6.799,-6.7829,-6.7837,-6.8253,-6.8262,-6.827,-6.839,0,0,0,0,0,0,-6.7408,-6.7441,-6.7506,-6.7555,-6.7584,-6.7773,-6.7666,-6.7666,-6.7714,-6.7704,-6.7757,-6.776,-6.7751,-6.7891,-6.7915,-6.8,-6.7845,-6.8245,-6.8257,-6.8267,-6.8378,-6.8402,-6.8422,0,0,0,0,0,-6.7397,-6.7534,-6.751,-6.7536,-6.7667,-6.7778,-6.7795,-6.7784,-6.7722,-6.7787,-6.7803,-6.7758,-6.7977,-6.7905,-6.7931,-6.8021,-6.824,-6.8254,-6.8267,-6.8368,-6.8397,-6.8421,0,0,0,0,0,0,-6.7492,-6.754,-6.7514,-6.7671,-6.7721,-6.7765,-6.7846,-6.7814,-6.7882,-6.787,-6.7852,-6.7864,-6.8002,-6.8025,-6.7944,-6.8186,-6.8098,-6.8118,-6.8167,-6.8194,-6.8216,-6.8207,-6.7853,0,0,0,0,0,-6.7532,-6.762,-6.7656,-6.7791,-6.7818,-6.7828,-6.7876,-6.7864,-6.7915,-6.7935,-6.7961,-6.8011,-6.8091,-6.8144,-6.8219,-6.8381,-6.8391,-6.8455,-6.8477,-6.8495,-6.8511,-6.8598,-6.8627,-6.8318,-6.8317,-6.8317,0,0,-6.7614,-6.7651,-6.7707,-6.7811,-6.7849,-6.7939,-6.7847,-6.7946,-6.8012,-6.7949,-6.8076,-6.8097,-6.8151,-6.8299,-6.8366,-6.8322,-6.8599,-6.8512,-6.8526,-6.8533,-6.8615,-6.8644,-6.867,-6.8327,-6.8325,-6.8324,0,0,-6.7809,-6.7847,-6.7963,-6.8003,-6.8062,-6.8068,-6.8096,-6.8144,-6.8156,-6.8284,-6.8238,-6.8316,-6.8454,-6.8494,-6.8533,-6.8744,-6.8704,-6.8769,-6.8882,-6.8966,-6.8991,-6.9012,-6.9087,-6.9114,-6.8785,-6.8785,-6.8786,0,-6.7903,-6.8039,-6.8026,-6.813,-6.8176,-6.8125,-6.8242,-6.8281,-6.8361,-6.8393,-6.8344,-6.8516,-6.8549,-6.8705,-6.8757,-6.879,-6.882,-6.8762,-6.8989,-6.901,-6.903,-6.91,-6.9129,-6.8793,-6.8792,-6.8791,-6.879,0,-6.8151,-6.8246,-6.8332,-6.8413,-6.8469,-6.8578,-6.8581,-6.8639,-6.8621,-6.8632,-6.8761,-6.8799,-6.888,-6.8916,-6.89,-6.9071,-6.9042,-6.8991,-6.8902,-6.9067,-6.9133,-6.916,-6.8803,-6.8801,-6.8798,-6.8797,0,0,-6.8409,-6.8482,-6.8514,-6.8549,-6.8611,-6.8683,-6.8789,-6.887,-6.892,-6.8977,-6.9065,-6.9183,-6.9136,-6.918,-6.9167,-6.9242,-6.9406,-6.9182,-6.9183,-6.9221,-6.9595,-6.9632,-6.9664,-6.938,-6.9385,-6.9389,-6.959,0,-6.8607,-6.8795,-6.8787,-6.8962,-6.9049,-6.9001,-6.9094,-6.9141,-6.9153,-6.9227,-6.924,-6.9324,-6.9257,-6.9283,-6.9355,-6.9371,-6.948,-6.9356,-6.946,-6.9464,-6.9448,-6.9699,-6.9739,-6.9927,-6.9616,-6.962,-6.9623,0,-6.8864,-6.8931,-6.9115,-6.9164,-6.92,-6.9283,-6.9357,-6.9429,-6.948,-6.9484,-6.9534,-6.9508,-6.9614,-6.9523,-6.9668,-6.9584,-6.9625,-6.964,-6.9647,-6.9655,-6.9553,-6.9714,-6.9986,-7.0014,-6.9664,-6.9661,-6.9658,0,-6.9033,-6.9169,-6.9297,-6.9329,-6.9389,-6.9448,-6.9476,-6.9522,-6.9571,-6.9635,-6.9666,-6.9741,-6.9782,-6.984,-6.9835,-6.9769,-6.9981,-6.989,-6.9986,-6.9986,-7.0032,-7.003,-7.0315,-7.0061,-7.006,-7.006,-7.0059,0,-6.9255,-6.937,-6.9374,-6.9453,-6.9579,-6.9567,-6.9692,-6.9712,-6.9754,-6.9834,-6.9797,-6.9873,-6.9862,-6.9938,-6.9934,-7.0054,-7.0073,-7.0078,-7.0075,-7.0081,-7.008,-7.0108,-7.0094,-7.0067,-7.0066,-7.0064,-7.0063,0,-6.9465,-6.9473,-6.9609,-6.9655,-6.9669,-6.976,-6.9798,-6.9871,-6.9881,-6.9983,-7.0006,-7.0021,-7.0108,-7.0109,-7.0208,-7.0205,-7.0352,-7.0335,-7.0335,-7.0332,-7.0428,-7.0418,-7.074,-7.0781,-7.0501,-7.0504,-7.0506,0,-6.9607,-6.9694,-6.9749,-6.9801,-6.9833,-6.9917,-6.9967,-6.9959,-7.0013,-7.0078,-7.0143,-7.0227,-7.0294,-7.0435,-7.0453,-7.0528,-7.0512,-7.062,-7.0523,-7.0526,-7.0513,-7.0508,-7.0516,-7.0638,-7.0642,-7.0644,-7.0646,0,-6.9856,-6.9855,-6.9931,-7.0008,-7.007,-7.0129,-7.0184,-7.0229,-7.0226,-7.0288,-7.0378,-7.043,-7.0532,-7.0615,-7.0688,-7.0713,-7.068,-7.0677,-7.0703,-7.0709,-7.0705,-7.0708,-7.0386,-7.0669,-7.0667,-7.0665,-7.0664,-7.0663,-7.0035,-7.011,-7.0161,-7.0246,-7.0287,-7.034,-7.0411,-7.043,-7.0505,-7.0589,-7.0578,-7.0678,-7.0726,-7.082,-7.0853,-7.0929,-7.0891,-7.0929,-7.0938,-7.0948,-7.0958,-7.0694,-7.0942,-7.0941,-7.0941,-7.094,-7.094,0,-7.0282,-7.0313,-7.0391,-7.047,-7.0537,-7.0501,-7.056,-7.0617,-7.0706,-7.0754,-7.0821,-7.0923,-7.1004,-7.1029,-7.1106,-7.1162,-7.1149,-7.1183,-7.1178,-7.1184,-7.0988,-7.0957,-7.1193,-7.1193,-7.1193,-7.1192,-7.1192,-7.1192,-7.0418,-7.0543,-7.0549,-7.0693,-7.0722,-7.0821,-7.0857,-7.0905,-7.0944,-7.106,-7.1128,-7.1144,-7.1183,-7.1262,-7.1334,-7.1339,-7.1369,-7.141,-7.1408,-7.1224,-7.1198,-7.1174,-7.1145,-7.1416,-7.1417,-7.1598,-7.16,-7.1601]}]]